Volver al catálogo

SL-16 DEB

ActivoLEO
NORAD 43354·DEBRIS·🇷🇺 Russia

Lanzado Sep 4, 1996 desde Baikonur Cosmodrome

Loading…

Próximos Pases (próximas 24 horas)

TLE

ActualizadoSource: Space-Track

Época: Sep 14, 2026, 14:48 UTC

1 43354U 96051P   26257.61723687 -.00000087  00000-0 -20072-4 0  9994
2 43354  71.1889 123.1801 0094006 319.4984  39.9168 14.14206679661052

Sigue SL-16 DEB en tiempo real con AllMySat

Download on the App Store